EW7554 Weather Reports


Display with metric or nautical units.
time (UTC)temp
F
wind
direction
speed
MPH
gust
MPH
rain 1hr
in
rain 24hr
in
rain mn
in
humidity
%
barometer
mb
20260901143107 74 192 1.0 4.0 0.00 0.00 0.00 73 1014.2
20260901141546 72 197 1.0 4.0 0.00 0.00 0.00 76 1014.3
20260901140043 71 196 1.0 4.0 0.00 0.00 0.00 80 1014.3
20260901134538 68 176 2.0 4.0 0.00 0.00 0.00 83 1014.3
20260901133035 67 171 2.0 6.0 0.00 0.00 0.00 85 1014.5
20260901131535 68 233 1.0 3.0 0.00 0.00 0.00 86 1014.4
20260901130033 67 279 0.0 2.0 0.00 0.00 0.00 87 1014.1
20260901124529 66 279 0.0 3.0 0.00 0.00 0.00 89 1014.1
20260901123033 65 279 0.0 1.0 0.00 0.00 0.00 89 1014.1
20260901121528 65 279 0.0 2.0 0.00 0.00 0.00 90 1014.0
20260901120020 65 284 0.0 3.0 0.00 0.00 0.00 90 1013.8
20260901114517 65 286 1.0 3.0 0.00 0.00 0.00 90 1013.6
20260901113018 65 295 1.0 5.0 0.00 0.00 0.00 90 1013.4
20260901111517 65 279 2.0 4.0 0.00 0.00 0.00 90 1013.1
20260901110028 65 211 0.0 2.0 0.00 0.00 0.00 89 1013.1
20260901104513 65 211 0.0 4.0 0.00 0.00 0.00 90 1012.9
20260901103018 65 213 1.0 2.0 0.00 0.00 0.00 90 1012.8
20260901101523 65 213 0.0 2.0 0.00 0.00 0.00 90 1012.7
20260901100011 65 213 1.0 3.0 0.00 0.00 0.00 90 1012.7
20260901094510 66 215 1.0 3.0 0.00 0.00 0.00 90 1012.8
20260901093009 66 215 0.0 3.0 0.00 0.00 0.00 90 1012.7
20260901091508 66 216 0.0 2.0 0.00 0.00 0.00 89 1012.6
20260901090011 66 216 1.0 3.0 0.00 0.00 0.00 88 1012.6
20260901084504 67 216 0.0 2.0 0.00 0.00 0.00 88 1012.7
20260901083002 67 216 1.0 2.0 0.00 0.00 0.00 87 1012.6
20260901081501 68 216 0.0 1.0 0.00 0.00 0.00 87 1012.5
20260901074603 68 216 0.0 1.0 0.00 0.00 0.00 87 1012.6
20260901073059 68 216 1.0 3.0 0.00 0.00 0.00 86 1012.6
20260901071558 68 241 0.0 2.0 0.00 0.00 0.00 85 1012.7
20260901064555 69 241 0.0 2.0 0.00 0.00 0.00 84 1013.0
20260901063055 69 241 1.0 3.0 0.00 0.00 0.00 84 1013.1
20260901061552 69 242 1.0 3.0 0.00 0.00 0.00 83 1013.2
20260901060050 70 242 1.0 4.0 0.00 0.00 0.00 82 1013.0
20260901054549 70 250 0.0 3.0 0.00 0.00 0.00 81 1012.9
20260901053048 71 251 1.0 2.0 0.00 0.00 0.00 81 1012.7
20260901051546 71 251 0.0 1.0 0.00 0.00 0.00 80 1012.6
20260901050041 72 251 0.0 2.0 0.00 0.00 0.00 79 1012.4
20260901044552 72 251 0.0 2.0 0.00 0.00 0.00 78 1012.3
20260901043039 72 251 1.0 3.0 0.00 0.00 0.00 78 1012.0
20260901041538 72 250 0.0 2.0 0.00 0.00 0.00 78 1012.0
20260901040038 73 250 1.0 2.0 0.00 0.00 0.00 77 1012.3
20260901034536 73 250 0.0 2.0 0.00 0.00 0.00 76 1012.3
20260901033035 74 250 0.0 1.0 0.00 0.00 0.00 75 1012.4
20260901031533 74 250 1.0 3.0 0.00 0.00 0.00 73 1012.2
20260901030042 75 254 0.0 2.0 0.00 0.00 0.00 72 1012.2
20260901024532 76 251 1.0 3.0 0.00 0.00 0.00 71 1012.0
20260901023032 76 249 1.0 3.0 0.00 0.00 0.00 69 1012.0
20260901021529 77 252 0.0 3.0 0.00 0.00 0.00 68 1011.8
20260901020027 77 269 1.0 2.0 0.00 0.00 0.00 68 1011.9
20260901014524 78 269 0.0 1.0 0.00 0.00 0.00 66 1011.6
20260901013022 79 269 0.0 2.0 0.00 0.00 0.00 65 1011.5
20260901011521 80 269 1.0 3.0 0.00 0.00 0.00 63 1011.3
20260901010022 81 270 0.0 3.0 0.00 0.00 0.00 61 1011.3
20260901004530 82 284 0.0 2.0 0.00 0.00 0.00 57 1011.2
20260901003022 83 290 0.0 5.0 0.00 0.00 0.00 54 1011.1
20260901001524 85 288 2.0 5.0 0.00 0.00 0.00 52 1011.1
20260901000017 85 298 4.0 8.0 0.00 0.00 0.00 50 1011.0
20260831234516 86 280 3.0 8.0 0.00 0.00 0.00 50 1011.1
20260831233014 87 277 1.0 8.0 0.00 0.00 0.00 50 1011.0
20260831231513 89 262 3.0 9.0 0.00 0.00 0.00 47 1011.0
20260831230015 89 267 4.0 11.0 0.00 0.00 0.00 48 1010.9
20260831224513 90 308 4.0 8.0 0.00 0.00 0.00 46 1010.8
20260831223010 90 282 4.0 9.0 0.00 0.00 0.00 47 1010.8
20260831221518 90 265 3.0 7.0 0.00 0.00 0.00 45 1010.7
20260831220008 90 275 4.0 9.0 0.00 0.00 0.00 44 1010.5
20260831214522 90 273 2.0 7.0 0.00 0.00 0.00 45 1010.4
20260831213007 92 284 4.0 9.0 0.00 0.00 0.00 45 1010.3
20260831211505 92 191 1.0 9.0 0.00 0.00 0.00 42 1010.3
20260831210006 92 265 2.0 10.0 0.00 0.00 0.00 43 1010.3
20260831204506 91 5 3.0 10.0 0.00 0.00 0.00 45 1010.3
20260831203001 92 303 2.0 8.0 0.00 0.00 0.00 42 1010.3
20260831201559 90 290 3.0 11.0 0.00 0.00 0.00 44 1010.4
20260831200058 90 267 4.0 12.0 0.00 0.00 0.00 47 1010.3
20260831194556 90 296 4.0 9.0 0.00 0.00 0.00 48 1010.2
20260831193055 89 278 3.0 9.0 0.00 0.00 0.00 48 1010.1
20260831191553 90 329 2.0 11.0 0.00 0.00 0.00 49 1010.2
20260831190110 89 355 4.0 10.0 0.00 0.00 0.00 46 1010.2
20260831184549 89 305 4.0 10.0 0.00 0.00 0.00 42 1010.0
20260831183057 88 311 4.0 10.0 0.00 0.00 0.00 49 1010.0
20260831181546 87 333 3.0 9.0 0.00 0.00 0.00 53 1010.0
20260831180042 87 340 2.0 8.0 0.00 0.00 0.00 58 1010.2
20260831174539 86 282 3.0 9.0 0.00 0.00 0.00 62 1010.2
20260831173039 85 328 4.0 8.0 0.00 0.00 0.00 64 1010.3
20260831171537 85 267 1.0 8.0 0.00 0.00 0.00 68 1010.4
20260831170033 85 319 2.0 6.0 0.00 0.00 0.00 69 1010.4
20260831164531 84 5 3.0 9.0 0.00 0.00 0.00 69 1010.3
20260831163038 84 298 2.0 8.0 0.00 0.00 0.00 70 1010.1
20260831161526 84 315 2.0 6.0 0.00 0.00 0.00 70 1009.9
20260831160036 83 310 1.0 4.0 0.00 0.00 0.00 73 1009.9
20260831154522 82 312 2.0 9.0 0.00 0.00 0.00 73 1010.0
20260831153020 82 327 4.0 9.0 0.00 0.00 0.00 74 1010.0
20260831151522 82 298 3.0 8.0 0.00 0.00 0.00 75 1009.8
20260831150019 80 286 4.0 8.0 0.00 0.00 0.00 78 1009.6
20260831144519 79 229 3.0 8.0 0.00 0.00 0.00 80 1009.3